CCA981 ZBAA-ZSPD

Flight info

Callsign CCA981
Flight time N/A
Altitude 33100
Route ELKUR2G ELKUR W40 YQG W568 ABTUB A593 PIMOL DCT SASAN SAS81A
Aircraft A359/H-SDE2E3GHIJ3J4J5LM1ORWXY/LB1D1

Departure

Time 2026-05-06 11:06
Airport Beijing Capital International Airport (ZBAA)

Arrival

Time N/A
Airport Shanghai Pudong International Airport (ZSPD)
Time Latitude Longitude Altitude Speed Heading
2026-05-06 11:02 40.09055 116.59701 130 ft 0 kts 173°
2026-05-06 11:03 40.09043 116.59702 125 ft 4 kts 173°
2026-05-06 11:03 40.09006 116.59704 127 ft 4 kts 196°
2026-05-06 11:03 40.08984 116.59670 129 ft 6 kts 245°
2026-05-06 11:03 40.08979 116.59643 126 ft 0 kts 261°
2026-05-06 11:04 40.08977 116.59622 129 ft 7 kts 261°
2026-05-06 11:04 40.08954 116.59551 129 ft 10 kts 227°
2026-05-06 11:04 40.08891 116.59501 128 ft 11 kts 195°
2026-05-06 11:05 40.08807 116.59505 126 ft 13 kts 173°
2026-05-06 11:05 40.08635 116.59532 126 ft 53 kts 172°
2026-05-06 11:05 40.08021 116.59630 126 ft 122 kts 176°
2026-05-06 11:05 40.06974 116.59794 213 ft 171 kts 172°
2026-05-06 11:06 40.05860 116.59932 1121 ft 153 kts 172°
2026-05-06 11:06 40.04809 116.60080 1903 ft 158 kts 169°
2026-05-06 11:06 40.03632 116.60290 2619 ft 179 kts 171°
2026-05-06 11:06 40.02414 116.60497 3211 ft 179 kts 173°
2026-05-06 11:07 40.01103 116.60706 3426 ft 200 kts 174°
2026-05-06 11:07 39.99642 116.60934 3641 ft 223 kts 175°
2026-05-06 11:07 39.98031 116.61184 3904 ft 244 kts 175°
2026-05-06 11:07 39.96275 116.61454 4266 ft 263 kts 175°
2026-05-06 11:08 39.94417 116.61743 4962 ft 273 kts 175°
2026-05-06 11:08 39.92533 116.62038 5699 ft 282 kts 176°
2026-05-06 11:08 39.90553 116.62347 6462 ft 290 kts 176°
2026-05-06 11:08 39.88527 116.62664 7302 ft 296 kts 176°
2026-05-06 11:09 39.86467 116.62986 8183 ft 301 kts 176°
2026-05-06 11:09 39.84367 116.63313 9063 ft 307 kts 176°
2026-05-06 11:09 39.82227 116.63650 9959 ft 312 kts 175°
2026-05-06 11:09 39.80036 116.63986 10623 ft 325 kts 176°
2026-05-06 11:10 39.77721 116.64331 11052 ft 346 kts 176°
2026-05-06 11:10 39.75297 116.64694 11485 ft 364 kts 177°
2026-05-06 11:10 39.72745 116.65081 12137 ft 373 kts 177°
2026-05-06 11:10 39.70156 116.65477 12973 ft 378 kts 178°
2026-05-06 11:11 39.67540 116.65878 13851 ft 379 kts 178°
2026-05-06 11:11 39.64913 116.66285 14714 ft 380 kts 179°
2026-05-06 11:11 39.62311 116.66898 15587 ft 382 kts 174°
2026-05-06 11:11 39.59714 116.67644 16552 ft 380 kts 175°
2026-05-06 11:12 39.57168 116.68350 17361 ft 381 kts 176°
2026-05-06 11:12 39.54566 116.69192 18111 ft 391 kts 169°
2026-05-06 11:12 39.52056 116.70700 18779 ft 403 kts 159°
2026-05-06 11:12 39.49583 116.72471 19377 ft 410 kts 158°
2026-05-06 11:13 39.47076 116.74282 19989 ft 415 kts 158°
2026-05-06 11:13 39.44537 116.76108 20630 ft 420 kts 158°
2026-05-06 11:13 39.41977 116.77941 21265 ft 425 kts 158°
2026-05-06 11:13 39.39373 116.79801 21905 ft 429 kts 158°
2026-05-06 11:14 39.36742 116.81677 22536 ft 434 kts 158°
2026-05-06 11:14 39.34057 116.83529 23125 ft 437 kts 161°
2026-05-06 11:14 39.31308 116.85041 23680 ft 438 kts 165°
2026-05-06 11:14 39.28460 116.86478 24240 ft 440 kts 166°
2026-05-06 11:15 39.25607 116.87911 24800 ft 443 kts 166°
2026-05-06 11:15 39.22727 116.89360 25356 ft 446 kts 167°
2026-05-06 11:15 39.19810 116.90820 25912 ft 448 kts 167°
2026-05-06 11:15 39.16845 116.91996 26437 ft 442 kts 176°
2026-05-06 11:16 39.13870 116.92497 26952 ft 432 kts 187°
2026-05-06 11:16 39.10908 116.92316 27480 ft 423 kts 197°
2026-05-06 11:16 39.08059 116.91490 28017 ft 415 kts 206°
2026-05-06 11:16 39.05384 116.90146 28572 ft 412 kts 211°
2026-05-06 11:17 39.02768 116.88635 29133 ft 413 kts 212°
2026-05-06 11:17 39.00147 116.87107 29681 ft 415 kts 212°
2026-05-06 11:17 38.97509 116.85580 30177 ft 417 kts 212°
2026-05-06 11:17 38.94860 116.84054 30551 ft 419 kts 212°
2026-05-06 11:18 38.92189 116.82521 30945 ft 422 kts 212°
2026-05-06 11:18 38.89529 116.80999 31304 ft 425 kts 212°
2026-05-06 11:18 38.86820 116.79451 31665 ft 427 kts 212°
2026-05-06 11:18 38.84097 116.77898 32024 ft 430 kts 212°
2026-05-06 11:19 38.81352 116.76335 32368 ft 432 kts 212°
2026-05-06 11:19 38.78597 116.74772 32646 ft 434 kts 212°
2026-05-06 11:19 38.75826 116.73202 32912 ft 438 kts 212°
2026-05-06 11:20 38.70286 116.70074 32982 ft 432 kts 212°
2026-05-06 11:20 38.64757 116.67176 32970 ft 438 kts 206°
2026-05-06 11:21 38.58661 116.65748 32962 ft 451 kts 195°
2026-05-06 11:21 38.52360 116.65028 32979 ft 455 kts 194°
2026-05-06 11:22 38.46096 116.64401 32976 ft 455 kts 194°
2026-05-06 11:22 38.39785 116.63722 32930 ft 455 kts 194°
2026-05-06 11:23 38.33476 116.63009 32968 ft 457 kts 194°
2026-05-06 11:23 38.27001 116.63401 32967 ft 479 kts 179°
2026-05-06 11:24 38.20520 116.65562 32965 ft 487 kts 174°
2026-05-06 11:24 38.14015 116.68039 32964 ft 487 kts 173°
2026-05-06 11:25 38.07533 116.70521 32966 ft 487 kts 173°
2026-05-06 11:25 38.01044 116.73016 32964 ft 487 kts 173°
2026-05-06 11:26 37.94610 116.75473 32964 ft 486 kts 173°
2026-05-06 11:26 37.88123 116.77938 32962 ft 486 kts 173°
2026-05-06 11:27 37.81643 116.80393 32962 ft 486 kts 173°
2026-05-06 11:27 37.75152 116.82849 32961 ft 486 kts 173°
2026-05-06 11:28 37.68719 116.85277 32955 ft 486 kts 172°
2026-05-06 11:28 37.62230 116.87721 32956 ft 487 kts 172°
2026-05-06 11:29 37.55738 116.90164 32958 ft 487 kts 172°
2026-05-06 11:29 37.49258 116.92602 32956 ft 487 kts 172°
2026-05-06 11:30 37.42790 116.95027 32958 ft 492 kts 173°
2026-05-06 11:30 37.40981 116.95701 32960 ft 493 kts 172°
2026-05-06 11:31 37.38820 116.96508 32959 ft 494 kts 172°
2026-05-06 11:31 37.32226 116.98975 32956 ft 495 kts 172°
2026-05-06 11:32 37.25672 117.01548 32956 ft 499 kts 169°
2026-05-06 11:32 37.19153 117.04677 32959 ft 504 kts 167°
2026-05-06 11:33 37.12605 117.07879 32959 ft 505 kts 168°
2026-05-06 11:33 37.06044 117.10992 32959 ft 504 kts 168°
2026-05-06 11:34 36.99471 117.13796 32932 ft 495 kts 175°
2026-05-06 11:34 36.92748 117.15586 32958 ft 493 kts 178°
2026-05-06 11:35 36.85990 117.17134 32963 ft 494 kts 178°
2026-05-06 11:35 36.79269 117.18649 32968 ft 495 kts 178°
2026-05-06 11:36 36.72470 117.20206 32916 ft 497 kts 178°
2026-05-06 11:36 36.65678 117.21774 32930 ft 497 kts 178°
2026-05-06 11:37 36.58881 117.23343 32946 ft 496 kts 178°
2026-05-06 11:37 36.52140 117.24894 32949 ft 496 kts 178°
2026-05-06 11:38 36.45372 117.26452 32965 ft 493 kts 178°
2026-05-06 11:38 36.38626 117.27997 32957 ft 492 kts 178°
2026-05-06 11:39 36.31883 117.29536 32957 ft 492 kts 178°
2026-05-06 11:39 36.25191 117.31061 32951 ft 492 kts 178°
2026-05-06 11:40 36.18468 117.32593 32944 ft 491 kts 178°
2026-05-06 11:40 36.11742 117.34124 32946 ft 491 kts 178°
2026-05-06 11:41 36.05021 117.35649 32917 ft 491 kts 177°
2026-05-06 11:41 35.98362 117.37449 32934 ft 497 kts 172°
2026-05-06 11:42 35.91708 117.39862 32931 ft 499 kts 171°
2026-05-06 11:42 35.85078 117.42357 32931 ft 499 kts 170°
2026-05-06 11:43 35.78424 117.44861 32931 ft 499 kts 170°
2026-05-06 11:43 35.71844 117.47321 32935 ft 498 kts 170°
2026-05-06 11:44 35.61894 117.51022 32940 ft 498 kts 169°
2026-05-06 11:44 35.55256 117.53485 32936 ft 498 kts 170°
2026-05-06 11:45 35.48630 117.55939 32947 ft 498 kts 170°
2026-05-06 11:45 35.42039 117.58377 32940 ft 498 kts 169°
2026-05-06 11:46 35.35418 117.60821 32947 ft 498 kts 170°
2026-05-06 11:46 35.28793 117.63262 32946 ft 499 kts 169°